Location: Cutler
(25.6150°N, 80.3110°W)
Time: 17:07:40
(UTC-05:00)

Cosmos 2360 Rocket - Visible Passes

Search period start: 23 November 2014 00:00
Search period end: 03 December 2014 00:00
Orbit: 834 x 846 km, 71.0° (Epoch: 23 November)

Date Brightness Start Highest point End Pass type
(mag) Time Alt. Az. Time Alt. Az. Time Alt. Az.
01 Dec 3.9 18:20:03 10° NNE 18:21:32 13° NE 18:21:32 13° NE visible
01 Dec 4.0 20:01:30 10° NNW 20:03:28 22° NW 20:03:28 22° NW visible
02 Dec 3.8 18:04:50 10° NE 18:07:04 12° ENE 18:09:18 10° E visible
02 Dec 2.5 19:45:52 10° NNW 19:51:24 62° WSW 19:51:41 61° WSW visible
